RH
86 86 82 59 54 64 79 95 92 97 55 39 30 40 28 14 15 25 52 51 38 55 65 46 9 8 8 8 7 7 7 7 8
90 90 88 89 88 77 50 65 84 83 87 46 30 31 41 21 14 18 29 41 42 49 66 65 28 10 9 9 9 9 8 8 9
78 92 95 94 90 91 85 64 47 62 82 85 61 29 25 31 23 15 14 26 39 46 39 58 47 34 12 10 10 10 9 9 10
78 77 79 82 94 94 95 89 81 55 30 59 84 78 37 26 22 18 18 16 15 20 37 36 42 25 21 14 14 15 16 15 13
74 66 69 80 80 82 85 92 95 83 74 31 43 86 88 54 27 23 20 17 18 19 17 18 18 17 16 13 12 12 12 14 15
52 38 62 73 70 71 74 81 80 84 90 86 59 35 55 79 81 61 28 21 23 20 18 19 19 18 15 14 13 13 12 12 11
26 13 11 19 26 54 48 56 49 58 78 81 92 85 36 26 45 61 72 68 58 22 17 18 19 19 19 18 17 16 14 14 13
10 9 8 7 7 7 7 8 13 34 57 56 60 84 97 92 74 33 28 29 52 70 59 36 18 19 20 20 20 19 18 17 16
5 5 5 5 5 5 5 6 6 6 7 11 13 16 37 60 91 88 67 44 61 34 27 43 61 55 35 21 19 20 18 20 20
5 5 5 5 5 6 6 7 7 7 7 6 6 6 6 6 12 60 89 79 79 76 66 60 53 37 41 48 50 42 28 15 11
6 6 6 7 7 8 8 9 9 10 10 10 10 9 8 8 7 6 9 10 24 62 76 75 72 59 50 64 59 40 38 40 38
6 6 7 8 8 9 10 11 12 13 14 14 14 14 14 13 12 11 10 9 8 8 10 32 63 46 39 60 63 73 74 55 37
7 7 8 8 9 9 10 11 12 14 16 18 18 18 19 19 18 17 16 15 14 13 11 10 9 10 13 34 63 64 59 68 72
8 9 10 11 12 13 14 16 17 19 21 22 22 22 22 24 25 25 24 23 21 20 19 18 16 14 13 11 11 22 42 41 55
11 12 13 15 17 19 21 22 22 23 25 26 26 26 24 23 24 27 29 30 30 28 27 25 23 23 20 19 18 16 13 12 12
19 21 24 26 27 28 29 30 32 32 31 29 31 31 30 33 34 35 33 32 34 36 36 34 32 30 28 26 25 23 21 20 18
38 37 37 36 36 37 38 40 42 43 44 43 44 47 45 43 42 44 46 48 46 45 43 43 41 42 38 36 33 31 28 26 23
60 59 58 58 56 54 53 52 53 54 55 56 55 54 53 53 50 51 50 52 53 52 54 50 49 49 47 45 44 42 39 35 32
80 80 81 82 79 77 73 69 69 71 78 81 81 79 76 75 73 71 68 67 66 65 65 63 60 59 60 58 58 55 50 47 44
98 99 98 97 96 95 96 94 91 84 78 74 71 68 64 59 57 64 68 65 65 66 67 67 62 58 57 57 62 64 66 65 60
Wind_Speed
15 16 17 16 16 15 16 15 13 13 14 13 13 11 11 12 12 12 11 10 10 10 9 9 9 8 8 7 7 7 8 8 8
15 17 16 16 19 18 17 18 17 17 17 17 16 14 13 14 12 12 11 11 11 11 11 10 9 9 8 8 7 7 7 7 7
16 19 20 21 15 12 14 19 19 18 18 17 19 17 15 16 15 15 14 14 14 13 12 11 11 10 10 10 9 8 7 7 7
15 16 16 18 21 22 20 17 20 22 21 21 19 19 20 21 21 19 18 18 16 16 15 13 13 13 12 11 11 10 9 9 9
12 12 14 15 12 15 19 19 21 22 23 23 22 22 21 24 24 23 22 21 21 20 19 18 18 18 17 16 15 14 14 13 12
14 13 11 12 12 13 13 13 14 19 20 24 24 22 24 25 24 24 24 25 26 26 24 24 24 23 22 21 20 19 18 17 17
16 15 14 15 14 15 14 13 13 14 15 18 18 27 25 25 27 25 26 26 27 28 27 28 28 28 26 24 24 24 23 22 21
20 19 18 18 17 17 16 15 15 15 14 13 14 15 19 21 26 27 23 25 27 30 29 29 31 32 31 30 29 28 28 27 26
24 22 21 20 19 19 18 18 17 17 18 17 18 17 17 18 22 24 30 27 26 28 29 30 32 34 32 33 34 33 32 32 31
28 28 27 26 25 24 23 22 22 22 21 21 20 20 21 21 22 23 23 25 28 27 28 32 31 32 32 34 35 35 35 35 35
32 32 31 30 30 29 28 27 27 27 26 26 26 25 26 26 26 26 27 27 28 28 29 30 31 34 36 32 32 35 37 38 39
35 35 35 34 34 33 33 32 32 32 32 32 31 31 32 32 32 31 32 32 31 31 31 33 35 33 31 31 32 34 36 36 38
38 38 38 38 38 38 37 37 37 36 36 36 36 36 36 37 37 37 37 37 37 37 37 37 37 38 37 37 39 38 38 37 38
41 41 41 41 41 41 41 41 41 41 40 41 41 41 41 42 42 42 42 42 42 43 43 43 43 42 42 41 42 43 44 44 43
43 43 43 43 44 44 44 45 46 47 47 47 48 48 49 49 49 49 48 48 49 49 49 49 49 49 49 48 48 47 47 47 47
45 46 46 47 48 49 49 51 51 52 53 54 54 55 55 55 54 54 55 55 55 55 54 54 54 55 54 54 55 54 53 52 51
51 51 52 53 53 54 55 56 57 57 58 59 59 59 60 60 60 60 60 60 60 60 61 61 60 60 60 59 59 60 60 59 58
56 56 57 58 59 60 60 61 61 62 62 63 64 65 65 65 65 66 66 66 67 66 66 66 66 66 66 65 64 64 64 64 64
60 60 61 62 63 65 65 65 66 66 66 67 68 68 68 68 68 68 68 68 70 70 71 72 72 71 71 70 71 71 70 68 68
64 64 64 64 64 64 65 65 65 65 65 66 67 68 68 69 69 68 69 69 69 70 71 72 72 73 74 74 74 74 74 75 74
Wind_Direction
222 229 242 233 227 228 225 221 224 229 227 223 225 217 212 217 218 208 202 205 206 205 206 207 205 203 204 203 196 192 188 181 168
239 233 234 246 239 234 234 235 230 229 227 225 226 222 221 228 229 227 224 219 221 218 217 223 217 216 216 209 214 195 203 194 186
242 246 245 244 235 229 230 237 234 238 236 230 232 227 227 232 234 236 234 230 231 231 227 225 229 226 222 220 219 227 221 217 209
241 241 241 247 240 237 242 243 239 236 242 238 238 237 231 232 230 231 237 244 242 242 241 237 234 232 235 234 231 228 231 232 231
234 242 242 238 239 239 239 243 242 241 238 241 235 240 240 242 240 236 236 239 246 246 246 247 246 244 242 240 242 240 239 239 239
226 238 229 228 236 233 237 235 244 249 244 247 239 236 241 244 243 243 242 241 243 242 242 244 246 247 246 247 248 246 244 244 245
238 241 240 241 239 238 241 239 247 254 250 251 249 235 233 241 245 247 246 244 249 250 250 252 253 254 254 252 253 255 256 255 251
237 239 238 238 241 242 242 246 245 249 250 249 257 254 254 258 254 247 256 252 252 254 253 252 254 255 256 256 255 253 254 257 260
235 236 239 240 240 242 244 247 248 251 251 254 257 260 258 257 259 258 248 254 263 260 260 256 255 255 256 258 258 259 258 258 258
241 240 239 238 238 241 244 247 250 252 255 257 259 259 259 258 258 258 253 248 249 251 256 261 262 261 262 261 262 262 263 260 258
249 250 249 249 248 246 247 249 251 253 255 257 257 259 262 261 260 260 259 258 256 253 254 255 255 257 260 261 265 266 264 264 263
252 253 255 255 257 257 256 254 253 253 254 257 258 258 259 261 262 261 261 262 262 261 257 257 259 260 260 260 262 263 262 263 265
253 253 252 253 254 255 256 256 256 257 257 257 257 257 257 259 260 260 261 262 263 263 263 261 259 259 259 258 259 262 264 264 263
253 253 253 253 253 254 255 256 258 258 259 259 261 261 261 260 259 259 260 261 261 261 262 262 262 261 261 259 258 257 259 261 262
254 255 255 255 256 257 257 258 259 260 261 262 263 262 262 263 263 262 261 260 259 259 259 260 261 261 261 261 261 260 259 258 259
256 256 256 257 257 258 259 260 260 262 262 262 263 264 264 264 264 264 263 263 262 261 260 259 259 260 260 260 261 261 260 260 260
258 258 259 259 259 260 260 261 262 262 263 264 264 265 265 265 266 266 266 265 265 264 263 263 262 261 260 259 260 261 261 261 259
260 261 261 262 262 262 262 263 263 265 266 266 267 268 268 268 267 268 267 268 268 267 266 265 264 264 263 263 261 260 260 261 261
261 262 262 263 263 263 263 264 265 266 266 267 268 268 268 268 268 268 268 267 267 268 268 268 268 266 265 264 264 264 263 261 259
261 262 262 262 262 263 264 264 265 266 267 267 268 268 269 269 269 268 269 268 267 266 266 267 268 268 269 268 267 265 265 264 263